• în Republica Moldova
  • Lista ţărilor
  • Pe 7 zile
  • Temperatura apei
  • Hartă satelitară
  • Meteo pe hartă
  • Widget-uri
  • user-avatar
    Intrare

    Meteo pe oră la Hobart

    Astăzi, 10 Decembrie, Luni

    Timp Temperatura Precipitaţii Vânt Presiune Umiditate
    00:00 +12°C° 0 mm 2 m/s 748 mmHg 94%
    01:00 +12°C° 0 mm 1 m/s 748 mmHg 95%
    02:00 +10°C° 0 mm 2 m/s 748 mmHg 96%
    03:00 +10°C° 0 mm 2 m/s 748 mmHg 96%
    04:00 +9°C° 0 mm 2 m/s 747 mmHg 98%
    05:00 +12°C° 0 mm 2 m/s 747 mmHg 85%
    06:00 +13°C° 0 mm 2 m/s 748 mmHg 72%
    07:00 +15°C° 0 mm 2 m/s 748 mmHg 59%
    08:00 +17°C° 0 mm 3 m/s 748 mmHg 51%
    09:00 +19°C° 0 mm 3 m/s 748 mmHg 44%
    10:00 +21°C° 0 mm 2 m/s 748 mmHg 38%
    11:00 +21°C° 0 mm 3 m/s 748 mmHg 41%
    12:00 +21°C° 0 mm 4 m/s 748 mmHg 44%
    13:00 +21°C° 0 mm 4 m/s 748 mmHg 46%
    14:00 +21°C° 0 mm 4 m/s 748 mmHg 46%
    15:00 +20°C° 0 mm 4 m/s 748 mmHg 45%
    16:00 +19°C° 0 mm 5 m/s 748 mmHg 50%
    17:00 +18°C° 0 mm 4 m/s 749 mmHg 54%
    18:00 +17°C° 0 mm 4 m/s 749 mmHg 58%
    19:00 +15°C° 0 mm 4 m/s 750 mmHg 62%
    20:00 +13°C° 0 mm 3 m/s 750 mmHg 71%
    21:00 +11°C° 0 mm 3 m/s 750 mmHg 80%
    22:00 +9°C° 0 mm 3 m/s 751 mmHg 89%
    23:00 +8°C° 0 mm 3 m/s 751 mmHg 91%

    Mâine, 11 Decembrie, Marţi

    Timp Temperatura Precipitaţii Vânt Presiune Umiditate
    00:00 +8°C° 0 mm 2 m/s 751 mmHg 93%
    01:00 +7°C° 0 mm 2 m/s 751 mmHg 96%
    02:00 +7°C° 0 mm 2 m/s 751 mmHg 96%
    03:00 +6°C° 0 mm 2 m/s 751 mmHg 97%
    04:00 +7°C° 0 mm 1 m/s 751 mmHg 97%
    05:00 +9°C° 0 mm 1 m/s 751 mmHg 86%
    06:00 +12°C° 0 mm 1 m/s 751 mmHg 74%
    07:00 +14°C° 0 mm 1 m/s 752 mmHg 63%
    08:00 +18°C° 0 mm 1 m/s 752 mmHg 53%
    09:00 +21°C° 0 mm 1 m/s 752 mmHg 43%
    10:00 +24°C° 0 mm 1 m/s 752 mmHg 33%
    11:00 +25°C° 0 mm 2 m/s 751 mmHg 31%
    12:00 +26°C° 0 mm 2 m/s 751 mmHg 30%
    13:00 +27°C° 0 mm 3 m/s 751 mmHg 28%
    14:00 +26°C° 0 mm 3 m/s 751 mmHg 31%
    15:00 +25°C° 0 mm 3 m/s 750 mmHg 35%
    16:00 +23°C° 0 mm 4 m/s 750 mmHg 39%
    17:00 +21°C° 0 mm 3 m/s 750 mmHg 47%
    18:00 +19°C° 0 mm 3 m/s 750 mmHg 56%
    19:00 +17°C° 0 mm 3 m/s 750 mmHg 64%
    20:00 +14°C° 0 mm 3 m/s 750 mmHg 73%
    21:00 +12°C° 0 mm 3 m/s 750 mmHg 82%
    22:00 +10°C° 0 mm 3 m/s 750 mmHg 90%
    23:00 +10°C° 0 mm 3 m/s 750 mmHg 92%

    Poimâine, 12 Decembrie, Miercuri

    Timp Temperatura Precipitaţii Vânt Presiune Umiditate
    00:00 +10°C° 0 mm 3 m/s 749 mmHg 93%
    01:00 +9°C° 0 mm 3 m/s 749 mmHg 94%
    02:00 +9°C° 0 mm 3 m/s 749 mmHg 95%
    03:00 +9°C° 0 mm 3 m/s 748 mmHg 96%
    04:00 +9°C° 0 mm 3 m/s 748 mmHg 96%
    05:00 +12°C° 0 mm 3 m/s 748 mmHg 86%
    06:00 +14°C° 0 mm 3 m/s 747 mmHg 76%
    07:00 +17°C° 0 mm 3 m/s 747 mmHg 66%
    08:00 +20°C° 0 mm 4 m/s 747 mmHg 55%
    09:00 +22°C° 0 mm 4 m/s 746 mmHg 43%
    10:00 +26°C° 0 mm 5 m/s 746 mmHg 32%
    11:00 +27°C° 0 mm 6 m/s 745 mmHg 29%
    12:00 +28°C° 0 mm 6 m/s 745 mmHg 26%
    13:00 +30°C° 0 mm 6 m/s 744 mmHg 23%
    14:00 +30°C° 0 mm 7 m/s 743 mmHg 25%
    15:00 +30°C° 0 mm 7 m/s 743 mmHg 27%
    16:00 +30°C° 0 mm 7 m/s 742 mmHg 28%
    17:00 +28°C° 0 mm 7 m/s 742 mmHg 37%
    18:00 +26°C° 0 mm 6 m/s 741 mmHg 45%
    19:00 +23°C° 0 mm 6 m/s 741 mmHg 53%
    20:00 +21°C° 0 mm 6 m/s 741 mmHg 62%
    21:00 +19°C° 0 mm 6 m/s 740 mmHg 71%
    22:00 +16°C° 0 mm 6 m/s 740 mmHg 80%
    23:00 +16°C° 0 mm 5 m/s 740 mmHg 80%

    13 Decembrie, Joi

    Timp Temperatura Precipitaţii Vânt Presiune Umiditate
    00:00 +16°C° 0 mm 5 m/s 740 mmHg 81%
    01:00 +16°C° 0 mm 5 m/s 739 mmHg 81%
    02:00 +16°C° 0 mm 5 m/s 739 mmHg 82%
    03:00 +17°C° 0 mm 4 m/s 739 mmHg 84%
    04:00 +15°C° 0 mm 4 m/s 738 mmHg 85%
    05:00 +18°C° 0 mm 4 m/s 738 mmHg 81%
    06:00 +19°C° 0 mm 4 m/s 738 mmHg 78%
    07:00 +20°C° 0 mm 4 m/s 738 mmHg 75%
    08:00 +21°C° 0 mm 5 m/s 738 mmHg 70%
    09:00 +22°C° 0 mm 5 m/s 738 mmHg 66%
    10:00 +24°C° 0 mm 6 m/s 738 mmHg 62%
    11:00 +24°C° 0.3 mm 6 m/s 738 mmHg 65%
    12:00 +24°C° 0.3 mm 6 m/s 738 mmHg 68%
    13:00 +24°C° 0.3 mm 6 m/s 738 mmHg 71%
    14:00 +23°C° 0.8 mm 5 m/s 738 mmHg 76%
    15:00 +22°C° 0.8 mm 5 m/s 738 mmHg 80%
    16:00 +22°C° 0.8 mm 5 m/s 739 mmHg 85%
    17:00 +21°C° 0.5 mm 5 m/s 739 mmHg 88%
    18:00 +20°C° 0.5 mm 5 m/s 740 mmHg 91%
    19:00 +19°C° 0.5 mm 4 m/s 741 mmHg 94%
    20:00 +19°C° 0 mm 4 m/s 741 mmHg 96%
    21:00 +18°C° 0 mm 4 m/s 742 mmHg 97%
    22:00 +17°C° 0 mm 3 m/s 742 mmHg 98%
    23:00 +17°C° 0 mm 3 m/s 743 mmHg 98%

    14 Decembrie, Vineri

    Timp Temperatura Precipitaţii Vânt Presiune Umiditate
    00:00 +17°C° 0 mm 3 m/s 743 mmHg 98%
    01:00 +17°C° 0 mm 3 m/s 743 mmHg 98%
    02:00 +17°C° 0 mm 3 m/s 744 mmHg 98%
    03:00 +17°C° 0 mm 2 m/s 744 mmHg 98%
    04:00 +16°C° 0 mm 2 m/s 744 mmHg 97%
    05:00 +17°C° 0 mm 2 m/s 745 mmHg 96%
    06:00 +17°C° 0 mm 3 m/s 745 mmHg 95%
    07:00 +17°C° 0 mm 3 m/s 746 mmHg 93%
    08:00 +19°C° 0 mm 3 m/s 746 mmHg 82%
    09:00 +20°C° 0 mm 3 m/s 747 mmHg 70%
    10:00 +22°C° 0 mm 4 m/s 747 mmHg 58%
    11:00 +23°C° 0 mm 4 m/s 747 mmHg 51%
    12:00 +25°C° 0 mm 4 m/s 747 mmHg 43%
    13:00 +27°C° 0 mm 5 m/s 746 mmHg 36%
    14:00 +26°C° 0 mm 5 m/s 746 mmHg 38%
    15:00 +26°C° 0 mm 5 m/s 746 mmHg 41%
    16:00 +25°C° 0 mm 5 m/s 747 mmHg 43%
    17:00 +22°C° 0 mm 5 m/s 747 mmHg 53%
    18:00 +20°C° 0 mm 4 m/s 747 mmHg 63%
    19:00 +19°C° 0 mm 4 m/s 747 mmHg 73%
    20:00 +18°C° 0 mm 4 m/s 748 mmHg 79%
    21:00 +17°C° 0 mm 3 m/s 748 mmHg 84%
    22:00 +16°C° 0 mm 3 m/s 749 mmHg 90%
    23:00 +16°C° 0 mm 3 m/s 748 mmHg 91%

    15 Decembrie, Sâmbătă

    Timp Temperatura Precipitaţii Vânt Presiune Umiditate
    00:00 +16°C° 0 mm 3 m/s 748 mmHg 92%
    01:00 +16°C° 0 mm 3 m/s 748 mmHg 94%
    02:00 +16°C° 0.1 mm 3 m/s 748 mmHg 94%
    03:00 +16°C° 0.1 mm 3 m/s 748 mmHg 95%
    04:00 +16°C° 0.1 mm 3 m/s 748 mmHg 95%
    05:00 +16°C° 0 mm 3 m/s 748 mmHg 94%
    06:00 +17°C° 0 mm 3 m/s 748 mmHg 93%
    07:00 +17°C° 0 mm 4 m/s 748 mmHg 91%
    08:00 +17°C° 0.2 mm 4 m/s 748 mmHg 91%
    09:00 +17°C° 0.2 mm 4 m/s 748 mmHg 91%
    10:00 +18°C° 0.2 mm 4 m/s 747 mmHg 91%
    11:00 +18°C° 0.5 mm 4 m/s 747 mmHg 92%
    12:00 +18°C° 0.5 mm 4 m/s 746 mmHg 93%
    13:00 +18°C° 0.5 mm 3 m/s 746 mmHg 93%
    14:00 +18°C° 1.2 mm 4 m/s 746 mmHg 95%
    15:00 +18°C° 1.2 mm 4 m/s 745 mmHg 96%
    16:00 +18°C° 1.2 mm 4 m/s 745 mmHg 97%
    17:00 +18°C° 1 mm 4 m/s 745 mmHg 97%
    18:00 +18°C° 1 mm 4 m/s 745 mmHg 97%
    19:00 +18°C° 1 mm 4 m/s 745 mmHg 98%
    20:00 +18°C° 0.3 mm 4 m/s 745 mmHg 98%
    21:00 +18°C° 0.3 mm 4 m/s 745 mmHg 98%
    22:00 +19°C° 0.3 mm 4 m/s 745 mmHg 98%
    23:00 +19°C° 0.3 mm 4 m/s 744 mmHg 98%
    Arată mai mult